Location: ??
(35.5052°N, 139.7262°E)
Time: 22:44:55
(UTC+00:00)

OAO 1 - Visible Passes

Search period start: 24 October 2021 00:00
Search period end: 03 November 2021 00:00
Orbit: 773 x 784 km, 35.0° (Epoch: 24 October)

Date Brightness Start Highest point End Pass type
(mag) Time Alt. Az. Time Alt. Az. Time Alt. Az.
24 Oct 4.4 09:57:16 10° W 10:02:47 86° S 10:02:50 85° SSE visible
25 Oct 4.5 09:20:25 10° W 09:25:56 84° S 09:28:02 39° E visible
25 Oct 6.9 11:06:49 10° W 11:08:24 20° W 11:08:24 20° W visible
26 Oct 4.5 08:43:35 10° W 08:49:06 82° S 08:53:14 18° E visible
26 Oct 5.6 10:29:58 10° W 10:33:36 42° W 10:33:36 42° W visible
27 Oct 4.6 08:06:46 10° WSW 08:12:15 79° S 08:17:46 10° E visible
27 Oct 4.4 09:53:08 10° W 09:58:39 81° S 09:58:48 80° SSE visible
28 Oct 4.5 09:16:18 10° W 09:21:49 84° S 09:24:02 37° E visible
28 Oct 6.9 11:02:46 10° W 11:04:25 19° W 11:04:25 19° W visible
29 Oct 4.5 08:39:27 10° W 08:44:58 86° S 08:49:18 17° E visible
29 Oct 5.7 10:25:54 10° W 10:29:41 39° WSW 10:29:41 39° WSW visible
30 Oct 4.6 08:02:37 10° W 08:08:07 87° S 08:13:39 10° E visible
30 Oct 4.8 09:49:03 10° W 09:54:25 56° SSW 09:55:00 53° S visible
31 Oct 4.8 09:12:11 10° W 09:17:36 61° SSW 09:20:24 28° SE visible
31 Oct 7.0 10:59:12 10° W 11:00:48 16° WSW 11:00:48 16° WSW visible
01 Nov 4.8 08:35:21 10° W 08:40:47 66° SSW 08:45:53 12° ESE visible
01 Nov 6.2 10:22:11 10° W 10:26:17 26° SW 10:26:17 26° SW visible
02 Nov 6.0 09:45:14 10° W 09:49:58 30° SSW 09:51:53 24° S visible
